DW8722 Weather Reports


time (UTC)temp
C
wind
direction
speed
KPH
gust
KPH
rain 1hr
cm
rain 24hr
cm
rain mn
cm
humidity
%
barometer
mb
20260506174927 12 9 6.4 16.1 0.00 0.03 0.03 89 1013.5
20260506173936 12 37 6.4 17.7 0.00 0.03 0.03 89 1013.6
20260506172953 12 336 8.0 22.5 0.00 0.03 0.03 89 1013.9
20260506171947 12 5 9.7 22.5 0.00 0.03 0.03 89 1014.2
20260506170957 12 355 11.3 20.9 0.00 0.03 0.03 90 1014.4
20260506170005 12 348 9.7 19.3 0.00 0.03 0.03 89 1015.2
20260506164952 12 20 6.4 14.5 0.00 0.03 0.03 89 1015.0
20260506163956 12 24 4.8 16.1 0.00 0.03 0.03 89 1014.8
20260506162938 12 17 8.0 20.9 0.00 0.03 0.03 89 1014.3
20260506161924 12 30 8.0 20.9 0.00 0.03 0.03 89 1013.6
20260506160936 11 34 0.0 0.0 0.00 0.00 0.00 88 1015.6
20260506160000 11 310 0.0 0.0 0.00 0.00 0.00 87 1016.1
20260506154957 11 302 3.2 20.9 0.00 0.00 0.00 86 1015.6
20260506154014 11 9 8.0 32.2 0.00 0.00 0.00 85 1014.5
20260506152950 12 309 14.5 32.2 0.00 0.00 0.00 85 1014.1
20260506151926 12 276 8.0 17.7 0.00 0.00 0.00 85 1014.8
20260506150929 11 0 11.3 20.9 0.00 0.00 0.00 85 1014.1
20260506145940 11 11 6.4 20.9 0.00 0.00 0.00 85 1014.6
20260506144906 11 344 8.0 20.9 0.00 0.00 0.00 85 1014.6
20260506143915 11 331 9.7 24.1 0.00 0.00 0.00 85 1014.5
20260506142940 11 350 9.7 24.1 0.00 0.00 0.00 86 1013.9
20260506135648 11 0 11.3 22.5 0.00 0.00 0.00 86 1013.5
20260506134650 11 332 8.0 22.5 0.00 0.00 0.00 87 1013.4
20260506133713 11 346 9.7 19.3 0.00 0.00 0.00 87 1013.4
20260506132733 11 22 12.9 22.5 0.00 0.00 0.00 87 1013.1
20260506130618 11 329 9.7 24.1 0.00 0.00 0.00 88 1013.2
20260506125619 11 5 11.3 22.5 0.00 0.00 0.00 88 1013.1
20260506124605 11 15 11.3 22.5 0.00 0.00 0.00 88 1012.7
20260506123537 11 337 9.7 22.5 0.00 0.00 0.00 88 1012.8
20260506122540 11 323 11.3 22.5 0.00 0.00 0.00 88 1012.7
20260506121602 11 318 9.7 22.5 0.00 0.00 0.00 87 1012.8
20260506120533 11 334 8.0 19.3 0.00 0.00 0.00 87 1012.5
20260506115503 11 342 11.3 24.1 0.00 0.00 0.00 87 1012.3
20260506114523 11 331 14.5 29.0 0.00 0.00 0.00 86 1012.0
20260506113518 11 340 14.5 29.0 0.00 0.00 0.00 86 1012.0
20260506112535 11 343 16.1 29.0 0.00 0.00 0.00 85 1011.8
20260506110424 11 5 11.3 20.9 0.00 0.00 0.00 84 1011.6
20260506105446 11 342 12.9 24.1 0.00 0.00 0.00 84 1011.4
20260506104425 11 315 11.3 24.1 0.00 0.00 0.00 83 1011.2
20260506103419 11 319 9.7 20.9 0.00 0.00 0.00 83 1011.0
20260506102422 11 16 9.7 22.5 0.00 0.00 0.00 83 1010.8
20260506101436 11 321 12.9 22.5 0.00 0.00 0.00 82 1010.7
20260506100456 11 319 6.4 16.1 0.00 0.00 0.00 82 1010.7
20260506094355 12 346 4.8 19.3 0.00 0.00 0.00 82 1010.4
20260506093355 12 355 6.4 19.3 0.00 0.00 0.00 81 1010.4
20260506092402 12 13 8.0 25.7 0.00 0.00 0.00 81 1010.3
20260506091330 12 342 6.4 25.7 0.00 0.00 0.00 81 1010.1
20260506090303 12 327 8.0 20.9 0.00 0.00 0.00 81 1009.8
20260506085230 12 355 9.7 20.9 0.00 0.00 0.00 80 1009.8
20260506084236 12 324 4.8 22.5 0.00 0.00 0.00 80 1009.7
20260506083215 12 9 12.9 22.5 0.00 0.00 0.00 79 1009.9
20260506082221 12 355 4.8 16.1 0.00 0.00 0.00 79 1009.8
20260506081211 12 342 4.8 16.1 0.00 0.00 0.00 79 1009.4
20260506080139 12 342 4.8 12.9 0.00 0.00 0.00 79 1009.2
20260506073101 12 23 4.8 16.1 0.00 0.00 0.00 79 1009.3
20260506070929 12 336 8.0 24.1 0.00 0.00 0.00 79 1009.4
20260506061708 13 334 12.9 25.7 0.00 0.00 0.00 80 1009.4
20260506060721 13 331 12.9 24.1 0.00 0.00 0.00 80 1009.3
20260506050539 13 11 12.9 22.5 0.00 0.00 0.00 81 1009.1
20260506044331 14 342 11.3 22.5 0.00 0.00 0.00 81 1009.1
20260506043323 15 350 11.3 22.5 0.00 0.00 0.00 81 1009.0
20260506042314 15 5 9.7 27.4 0.00 0.00 0.00 81 1008.9
20260506041334 15 9 14.5 27.4 0.00 0.00 0.00 81 1008.7
20260506040339 15 0 12.9 24.1 0.00 0.00 0.00 82 1008.6
20260506035324 15 326 14.5 24.1 0.00 0.00 0.00 82 1008.8
20260506034314 15 343 12.9 24.1 0.00 0.00 0.00 82 1008.5
20260506033323 15 325 14.5 27.4 0.00 0.00 0.00 82 1008.3
20260506032329 16 348 11.3 27.4 0.00 0.00 0.00 82 1008.2
20260506031304 16 340 9.7 22.5 0.00 0.00 0.00 81 1008.0
20260506030249 17 329 12.9 24.1 0.00 0.00 0.00 80 1007.7
20260506025312 17 339 9.7 24.1 0.00 0.00 0.00 80 1007.4
20260506021941 19 0 11.3 22.5 0.00 0.00 0.00 80 1006.4
20260506014709 20 333 6.4 22.5 0.00 0.00 0.00 78 1005.8
20260506013651 20 344 9.7 22.5 0.00 0.00 0.00 78 1005.9
20260506012645 21 324 9.7 20.9 0.00 0.00 0.00 78 1005.8
20260506011621 21 5 8.0 17.7 0.00 0.00 0.00 78 1005.4
20260506010610 21 348 8.0 22.5 0.00 0.00 0.00 77 1005.2
20260506005627 22 11 11.3 22.5 0.00 0.00 0.00 75 1004.7
20260506004610 22 355 4.8 17.7 0.00 0.00 0.00 75 1005.0
20260506003602 23 340 4.8 17.7 0.00 0.00 0.00 74 1005.0
20260506002608 23 313 4.8 20.9 0.00 0.00 0.00 73 1005.0
20260506001558 23 302 9.7 22.5 0.00 0.00 0.00 72 1004.7
20260506000543 24 313 8.0 25.7 0.00 0.00 0.00 70 1004.3
20260505235542 25 318 11.3 25.7 0.00 0.00 0.00 69 1004.2
20260505234513 25 311 12.9 24.1 0.00 0.00 0.00 66 1004.0
20260505231244 27 309 3.2 12.9 0.00 0.00 0.00 61 1003.6
20260505230221 28 271 4.8 14.5 0.00 0.00 0.00 59 1003.3
20260505225242 30 245 4.8 16.1 0.00 0.00 0.00 65 1003.3
20260505224250 30 204 6.4 16.1 0.00 0.00 0.00 63 1003.0
20260505223231 30 196 6.4 16.1 0.00 0.00 0.00 63 1002.7
20260505222224 30 174 4.8 12.9 0.00 0.00 0.00 64 1002.6
20260505221221 30 210 4.8 12.9 0.00 0.00 0.00 62 1002.6
20260505220209 30 223 8.0 14.5 0.00 0.00 0.00 63 1002.9
20260505215231 31 186 8.0 16.1 0.00 0.00 0.00 63 1002.9
20260505214220 31 204 8.0 22.5 0.00 0.00 0.00 62 1002.9
20260505213227 31 196 9.7 24.1 0.00 0.00 0.00 62 1003.0
20260505212251 30 196 11.3 24.1 0.00 0.00 0.00 64 1003.0
20260505211303 30 217 12.9 24.1 0.00 0.00 0.00 66 1003.2
20260505210310 30 193 12.9 24.1 0.00 0.00 0.00 66 1003.2
20260505205305 29 209 11.3 22.5 0.00 0.00 0.00 68 1003.3
20260505204243 28 180 14.5 22.5 0.00 0.00 0.00 70 1003.3
20260505203252 28 171 11.3 22.5 0.00 0.00 0.00 69 1003.6
20260505202243 28 183 12.9 25.7 0.00 0.00 0.00 70 1003.7
20260505201235 28 187 12.9 29.0 0.00 0.00 0.00 69 1003.6
20260505195103 29 202 16.1 29.0 0.00 0.00 0.00 68 1003.8
20260505194042 28 194 17.7 29.0 0.00 0.00 0.00 70 1003.7
20260505193027 28 180 16.1 30.6 0.00 0.00 0.00 71 1003.8
20260505192026 27 196 19.3 30.6 0.00 0.00 0.00 70 1003.6
20260505190954 28 146 14.5 32.2 0.00 0.00 0.00 70 1003.8
20260505190014 27 207 14.5 32.2 0.00 0.00 0.00 72 1003.8
20260505185034 27 196 16.1 30.6 0.00 0.00 0.00 72 1003.8
20260505182854 27 201 16.1 32.2 0.00 0.00 0.00 71 1004.0
20260505181831 27 207 17.7 35.4 0.00 0.00 0.00 72 1004.1